Find Kosmos-714

NORAD ID: 7681 Int'l Des: 1975-016 Owner: GUKOSR Country: SU operational
LEOCIRCULAR

リアルタイム位置

3D地球を読み込み中...

Kosmos-714について

説明を読み込み中...

次回通過

Passes for default location (London). Set your location on the main map for personalized predictions.

高度履歴

Loading altitude history...

軌道要素

1 07681U 75016D 26105.95160674 -.00000032 00000-0 -10402-3 0 9990
2 07681 74.0059 39.0321 0030251 240.9133 191.1609 12.49302405331756
Epoch: Apr 15, 2026 • Age: 7 hours

現在のステータス

高度 1477.1 km
速度 7.13 km/s
衛星直下点 -43.83°S, 89.94°E
タイプ other

Most Searched